contact:dominique.lefevre@mio.osupytheas.fr, maurice.libes@osupytheas.fr, didier.mallarino@osupytheas.fr
Project:EMSO http://www.emso-fr.org/EMSO-France
Depth: 2436.0 m
Title:EMSO Ligure Ouest : Data MII capteur AQUADOPP
Date,Latitude,Longitude,X_East,Y_North,Z_Up,Amplitude_X,Amplitude_Y,Amplitude_Z,Batterie,SoundSpeed,Heading,Pitch,Roll,Pressure,TIS,Speed,Direction
, degrees North, degrees East, m.s-1, m.s-1,m.s-1, 1, 1, 1, Volt, m.s-1, degree, degree, degree, dbar, degree_C, m.s-1, degree
2020-01-24T00:04:03,42.805,6.029,-0.003,0.022,0.02,110.0,112.0,104.0,13.4,1505.3,327.4,-0.7,1.8,2470.185,13.31,0.022,352.2
2020-01-24T00:07:03,42.805,6.029,-0.013,0.0,-0.003,110.0,113.0,105.0,13.3,1505.3,327.2,-0.7,1.8,2470.147,13.32,0.013,270.0
2020-01-24T00:10:03,42.805,6.029,-0.034,0.008,-0.011,109.0,113.0,105.0,13.4,1505.3,328.4,-0.7,1.8,2470.184,13.32,0.034,283.2
2020-01-24T00:13:03,42.805,6.029,-0.023,-0.011,0.022,111.0,110.0,106.0,13.4,1505.3,324.8,-0.7,1.8,2470.117,13.33,0.025,244.4
2020-01-24T00:16:03,42.805,6.029,-0.007,0.0,-0.01,110.0,112.0,105.0,13.4,1505.3,323.8,-0.7,1.8,2470.139,13.33,0.007,270.0
2020-01-24T00:19:03,42.805,6.029,-0.031,0.004,-0.034,109.0,112.0,105.0,13.4,1505.3,324.7,-0.7,1.8,2470.125,13.33,0.031,277.3
2020-01-24T00:22:03,42.805,6.029,-0.033,0.002,0.006,109.0,109.0,104.0,13.3,1505.3,323.7,-0.7,1.8,2470.215,13.33,0.033,273.5
2020-01-24T00:25:03,42.805,6.029,-0.027,0.042,-0.014,109.0,111.0,106.0,13.4,1505.3,326.9,-0.7,1.8,2470.178,13.33,0.049,327.3
2020-01-24T00:28:03,42.805,6.029,-0.036,0.019,-0.016,110.0,113.0,106.0,13.4,1505.3,323.6,-0.7,1.8,2470.14,13.33,0.04,297.8
2020-01-24T00:31:03,42.805,6.029,-0.015,0.01,-0.013,110.0,112.0,106.0,13.4,1505.3,325.2,-0.7,1.8,2470.162,13.33,0.018,303.7
2020-01-24T00:34:03,42.805,6.029,-0.027,-0.004,-0.004,110.0,112.0,106.0,13.4,1505.3,323.3,-0.7,1.8,2470.171,13.33,0.027,261.6
2020-01-24T00:37:03,42.805,6.029,-0.034,0.018,-0.016,109.0,112.0,107.0,13.4,1505.3,327.7,-0.7,1.8,2470.098,13.33,0.038,297.9
2020-01-24T00:40:03,42.805,6.029,-0.023,0.013,-0.046,111.0,112.0,106.0,13.4,1505.3,326.9,-0.7,1.8,2470.162,13.33,0.026,299.5
2020-01-24T00:43:03,42.805,6.029,-0.038,0.019,0.001,110.0,112.0,105.0,13.4,1505.3,325.4,-0.7,1.8,2470.123,13.33,0.042,296.6
2020-01-24T00:46:03,42.805,6.029,-0.019,0.009,-0.036,111.0,114.0,106.0,13.3,1505.3,324.1,-0.7,1.8,2470.102,13.33,0.021,295.3
2020-01-24T00:49:03,42.805,6.029,-0.009,0.012,-0.001,110.0,111.0,106.0,13.4,1505.3,323.8,-0.7,1.8,2470.117,13.33,0.015,323.1
2020-01-24T00:52:03,42.805,6.029,-0.018,0.012,-0.011,110.0,114.0,107.0,13.4,1505.3,326.7,-0.7,1.8,2470.185,13.33,0.021,303.7
2020-01-24T00:55:03,42.805,6.029,-0.016,0.005,-0.023,111.0,110.0,106.0,13.4,1505.3,328.5,-0.7,1.8,2470.132,13.33,0.016,287.4
2020-01-24T00:58:03,42.805,6.029,-0.016,0.032,0.013,111.0,112.0,106.0,13.4,1505.3,326.3,-0.7,1.8,2470.137,13.33,0.035,333.4
2020-01-24T01:04:03,42.805,6.029,0.008,0.012,0.016,111.0,113.0,106.0,13.3,1505.3,323.4,-0.8,1.8,2470.136,13.31,0.014,33.7
2020-01-24T01:07:03,42.805,6.029,-0.025,0.017,0.003,110.0,112.0,106.0,13.4,1505.3,324.5,-0.7,1.8,2470.163,13.32,0.03,304.2
2020-01-24T01:10:03,42.805,6.029,0.001,0.004,0.006,110.0,112.0,107.0,13.4,1505.3,327.2,-0.7,1.8,2470.151,13.33,0.004,14.0
2020-01-24T01:13:03,42.805,6.029,-0.015,0.0,-0.01,111.0,112.0,106.0,13.4,1505.3,323.7,-0.7,1.8,2470.113,13.33,0.015,270.0
2020-01-24T01:16:03,42.805,6.029,-0.022,0.001,0.002,112.0,112.0,105.0,13.3,1505.3,325.5,-0.7,1.9,2470.113,13.33,0.022,272.6
2020-01-24T01:19:03,42.805,6.029,-0.03,0.005,-0.029,111.0,114.0,107.0,13.4,1505.3,325.3,-0.7,1.8,2470.127,13.33,0.03,279.5
2020-01-24T01:22:03,42.805,6.029,-0.002,0.012,-0.002,111.0,112.0,105.0,13.4,1505.3,324.6,-0.7,1.8,2470.189,13.33,0.012,350.5
2020-01-24T01:25:03,42.805,6.029,-0.012,0.006,-0.035,110.0,111.0,105.0,13.3,1505.4,324.6,-0.7,1.9,2470.131,13.34,0.013,296.6
2020-01-24T01:28:03,42.805,6.029,-0.052,0.01,-0.036,109.0,111.0,106.0,13.4,1505.4,324.2,-0.7,1.8,2470.155,13.34,0.052,280.9
2020-01-24T01:31:03,42.805,6.029,-0.024,0.021,-0.005,110.0,113.0,105.0,13.3,1505.4,325.3,-0.7,1.8,2470.093,13.34,0.031,311.2
2020-01-24T01:34:03,42.805,6.029,-0.017,0.021,0.002,109.0,111.0,106.0,13.4,1505.4,326.7,-0.7,1.8,2470.106,13.34,0.027,321.0
2020-01-24T01:37:03,42.805,6.029,-0.021,0.007,-0.023,111.0,111.0,106.0,13.4,1505.4,326.2,-0.7,1.8,2470.087,13.34,0.022,288.4
2020-01-24T01:40:03,42.805,6.029,-0.014,0.0,-0.016,111.0,112.0,107.0,13.4,1505.4,324.9,-0.7,1.9,2470.118,13.34,0.014,270.0
2020-01-24T01:43:03,42.805,6.029,-0.013,0.028,0.006,110.0,111.0,106.0,13.4,1505.4,324.2,-0.7,1.8,2470.113,13.34,0.03,335.1
2020-01-24T01:46:03,42.805,6.029,-0.026,0.014,-0.019,111.0,114.0,106.0,13.4,1505.4,328.4,-0.7,1.8,2470.132,13.34,0.029,298.3
2020-01-24T01:49:03,42.805,6.029,0.003,0.025,0.015,110.0,113.0,107.0,13.4,1505.4,326.0,-0.7,1.8,2470.137,13.34,0.025,6.8
2020-01-24T01:52:03,42.805,6.029,0.007,0.02,-0.004,110.0,113.0,106.0,13.4,1505.4,328.3,-0.7,1.8,2470.139,13.34,0.021,19.3
2020-01-24T01:55:03,42.805,6.029,0.015,0.008,0.024,113.0,113.0,106.0,13.4,1505.4,323.8,-0.7,1.8,2470.136,13.34,0.017,61.9
2020-01-24T01:58:03,42.805,6.029,-0.012,0.011,0.007,112.0,113.0,105.0,13.4,1505.4,325.6,-0.7,1.8,2470.114,13.34,0.016,312.5
2020-01-24T02:04:03,42.805,6.029,-0.012,-0.002,0.019,111.0,113.0,105.0,13.3,1505.3,325.3,-0.7,1.8,2470.164,13.32,0.012,260.5
2020-01-24T02:07:03,42.805,6.029,-0.01,0.002,-0.032,110.0,114.0,105.0,13.4,1505.3,323.8,-0.7,1.8,2470.169,13.33,0.01,281.3
2020-01-24T02:10:03,42.805,6.029,-0.019,0.021,-0.007,110.0,112.0,104.0,13.4,1505.3,324.2,-0.7,1.8,2470.159,13.33,0.028,317.9
2020-01-24T02:13:03,42.805,6.029,-0.019,0.03,-0.019,110.0,113.0,105.0,13.3,1505.3,326.6,-0.7,1.8,2470.162,13.33,0.035,327.7
2020-01-24T02:16:03,42.805,6.029,-0.017,0.026,-0.027,111.0,112.0,106.0,13.4,1505.4,326.5,-0.7,1.8,2470.112,13.34,0.031,326.8
2020-01-24T02:19:03,42.805,6.029,-0.038,0.018,-0.002,109.0,113.0,106.0,13.4,1505.4,328.5,-0.7,1.8,2470.165,13.34,0.042,295.3
2020-01-24T02:22:03,42.805,6.029,-0.025,0.012,-0.018,109.0,111.0,106.0,13.4,1505.4,322.7,-0.7,1.8,2470.141,13.34,0.027,295.6
2020-01-24T02:25:03,42.805,6.029,-0.002,0.01,0.009,111.0,109.0,105.0,13.4,1505.4,324.4,-0.7,1.8,2470.123,13.34,0.01,348.7
2020-01-24T02:28:03,42.805,6.029,0.0,0.014,0.018,109.0,111.0,105.0,13.4,1505.4,326.6,-0.7,1.8,2470.161,13.34,0.014,0.0
2020-01-24T02:31:03,42.805,6.029,-0.005,0.002,0.008,109.0,111.0,105.0,13.4,1505.4,324.9,-0.7,1.8,2470.151,13.34,0.005,291.8
2020-01-24T02:34:03,42.805,6.029,-0.025,0.014,0.008,110.0,111.0,106.0,13.4,1505.4,326.5,-0.7,1.8,2470.147,13.34,0.028,299.3
2020-01-24T02:37:03,42.805,6.029,0.007,0.005,-0.017,110.0,111.0,105.0,13.3,1505.4,328.2,-0.7,1.8,2470.149,13.34,0.008,54.5
2020-01-24T02:40:03,42.805,6.029,-0.031,0.009,-0.001,110.0,111.0,104.0,13.3,1505.4,327.7,-0.7,1.8,2470.14,13.34,0.032,286.2
2020-01-24T02:43:03,42.805,6.029,-0.007,0.013,-0.014,110.0,111.0,105.0,13.4,1505.4,324.9,-0.7,1.8,2470.174,13.34,0.014,331.7
2020-01-24T02:46:03,42.805,6.029,-0.023,0.013,-0.006,108.0,111.0,105.0,13.4,1505.4,325.6,-0.7,1.8,2470.152,13.34,0.026,299.5
2020-01-24T02:49:03,42.805,6.029,-0.013,0.042,-0.018,110.0,111.0,104.0,13.4,1505.4,327.9,-0.7,1.9,2470.151,13.34,0.043,342.8
2020-01-24T02:52:03,42.805,6.029,-0.014,0.011,0.012,109.0,111.0,104.0,13.4,1505.4,324.3,-0.7,1.8,2470.166,13.34,0.017,308.2
2020-01-24T02:55:03,42.805,6.029,-0.039,0.005,-0.015,108.0,111.0,105.0,13.4,1505.4,327.6,-0.7,1.8,2470.179,13.34,0.039,277.3
2020-01-24T02:58:03,42.805,6.029,-0.015,0.016,-0.018,109.0,112.0,104.0,13.4,1505.4,324.8,-0.7,1.8,2470.179,13.34,0.021,316.9
2020-01-24T03:04:03,42.805,6.029,-0.035,-0.007,-0.025,108.0,114.0,105.0,13.4,1505.3,328.1,-0.7,1.8,2470.216,13.32,0.035,258.7
2020-01-24T03:07:03,42.805,6.029,0.002,0.007,-0.007,108.0,112.0,104.0,13.4,1505.3,322.9,-0.7,1.8,2470.166,13.33,0.007,15.9
2020-01-24T03:10:03,42.805,6.029,-0.017,-0.007,-0.012,109.0,111.0,104.0,13.4,1505.3,327.8,-0.7,1.9,2470.198,13.33,0.018,247.6
2020-01-24T03:13:03,42.805,6.029,-0.014,0.005,-0.012,108.0,111.0,105.0,13.4,1505.3,326.1,-0.7,1.8,2470.161,13.33,0.014,289.6
2020-01-24T03:16:03,42.805,6.029,-0.015,0.009,-0.033,110.0,112.0,105.0,13.4,1505.4,325.7,-0.7,1.9,2470.208,13.34,0.017,301.0
2020-01-24T03:19:03,42.805,6.029,-0.041,0.014,-0.011,110.0,111.0,108.0,13.4,1505.4,324.3,-0.8,1.8,2470.197,13.34,0.043,288.9
2020-01-24T03:22:03,42.805,6.029,-0.015,0.008,0.016,110.0,113.0,106.0,13.4,1505.4,326.6,-0.7,1.8,2470.192,13.34,0.017,298.1
2020-01-24T03:25:03,42.805,6.029,-0.02,0.004,-0.057,110.0,113.0,105.0,13.4,1505.4,323.8,-0.7,1.8,2470.203,13.34,0.02,281.3
2020-01-24T03:28:03,42.805,6.029,0.015,0.017,0.039,111.0,111.0,106.0,13.3,1505.4,324.0,-0.7,1.8,2470.208,13.34,0.022,41.4
2020-01-24T03:31:03,42.805,6.029,-0.025,0.01,-0.022,110.0,111.0,106.0,13.3,1505.4,328.0,-0.7,1.8,2470.198,13.34,0.026,291.8
2020-01-24T03:34:03,42.805,6.029,-0.004,-0.001,0.017,110.0,113.0,105.0,13.4,1505.4,324.6,-0.7,1.8,2470.243,13.34,0.004,256.0
2020-01-24T03:37:03,42.805,6.029,-0.026,-0.003,-0.038,113.0,112.0,106.0,13.3,1505.4,323.5,-0.7,1.8,2470.194,13.34,0.026,263.4
2020-01-24T03:40:03,42.805,6.029,0.005,0.013,-0.014,113.0,114.0,106.0,13.4,1505.4,322.8,-0.7,1.8,2470.192,13.34,0.013,21.0
2020-01-24T03:43:03,42.805,6.029,-0.017,-0.009,-0.031,109.0,112.0,104.0,13.4,1505.4,328.3,-0.7,1.8,2470.259,13.34,0.019,242.1
2020-01-24T03:46:03,42.805,6.029,0.004,0.014,-0.016,109.0,114.0,106.0,13.4,1505.4,324.7,-0.7,1.8,2470.215,13.35,0.014,15.9
2020-01-24T03:49:03,42.805,6.029,-0.03,0.004,-0.036,109.0,112.0,105.0,13.3,1505.4,326.9,-0.7,1.8,2470.229,13.35,0.03,277.6
2020-01-24T03:52:03,42.805,6.029,0.0,0.005,0.008,108.0,113.0,105.0,13.4,1505.4,324.3,-0.7,1.8,2470.208,13.35,0.005,0.0
2020-01-24T03:55:03,42.805,6.029,-0.028,-0.001,0.0,110.0,114.0,105.0,13.3,1505.4,326.5,-0.7,1.9,2470.23,13.35,0.028,268.0
2020-01-24T03:58:03,42.805,6.029,-0.006,0.022,-0.005,109.0,114.0,106.0,13.3,1505.4,324.4,-0.7,1.8,2470.258,13.35,0.022,344.7
2020-01-24T04:04:03,42.805,6.029,-0.008,0.0,-0.002,109.0,113.0,105.0,13.3,1505.3,324.1,-0.7,1.9,2470.287,13.33,0.008,270.0
2020-01-24T04:07:03,42.805,6.029,-0.005,0.009,-0.001,110.0,113.0,105.0,13.4,1505.4,325.3,-0.7,1.8,2470.246,13.34,0.01,330.9
2020-01-24T04:10:03,42.805,6.029,-0.012,0.017,0.003,108.0,113.0,106.0,13.4,1505.4,326.2,-0.7,1.9,2470.251,13.34,0.02,324.8
2020-01-24T04:13:03,42.805,6.029,0.003,0.012,-0.02,110.0,113.0,106.0,13.3,1505.4,323.6,-0.7,1.8,2470.292,13.34,0.012,14.0
2020-01-24T04:16:03,42.805,6.029,-0.044,0.013,-0.034,109.0,112.0,105.0,13.4,1505.4,325.0,-0.7,1.8,2470.264,13.34,0.045,286.5
2020-01-24T04:19:03,42.805,6.029,-0.005,0.006,-0.003,111.0,114.0,106.0,13.4,1505.4,327.9,-0.7,1.8,2470.249,13.35,0.007,320.2
2020-01-24T04:22:03,42.805,6.029,0.006,0.0,-0.003,110.0,114.0,105.0,13.4,1505.4,327.4,-0.7,1.8,2470.271,13.35,0.006,90.0
2020-01-24T04:25:03,42.805,6.029,0.013,-0.001,0.005,110.0,114.0,107.0,13.3,1505.4,326.8,-0.7,1.8,2470.232,13.35,0.013,94.4
2020-01-24T04:28:03,42.805,6.029,-0.006,-0.01,-0.041,109.0,115.0,107.0,13.4,1505.4,326.0,-0.7,1.9,2470.294,13.35,0.011,211.0
2020-01-24T04:31:03,42.805,6.029,-0.003,-0.005,-0.026,108.0,113.0,106.0,13.4,1505.4,326.9,-0.7,1.8,2470.276,13.35,0.005,211.0
2020-01-24T04:34:03,42.805,6.029,-0.001,0.016,0.01,111.0,113.0,105.0,13.3,1505.4,323.1,-0.7,1.9,2470.278,13.35,0.016,356.4
2020-01-24T04:37:03,42.805,6.029,-0.017,0.0,-0.015,110.0,115.0,104.0,13.4,1505.4,325.1,-0.7,1.8,2470.279,13.35,0.017,270.0
2020-01-24T04:40:03,42.805,6.029,0.005,0.001,-0.025,109.0,114.0,105.0,13.4,1505.4,327.7,-0.7,1.8,2470.291,13.35,0.005,78.7
2020-01-24T04:43:03,42.805,6.029,-0.005,0.016,0.006,108.0,112.0,107.0,13.4,1505.4,323.3,-0.7,1.8,2470.287,13.35,0.016,342.6
2020-01-24T04:46:03,42.805,6.029,0.012,0.006,-0.019,111.0,113.0,106.0,13.3,1505.4,324.3,-0.7,1.8,2470.315,13.35,0.013,63.4
2020-01-24T04:49:03,42.805,6.029,0.0,0.004,0.0,109.0,112.0,105.0,13.3,1505.4,324.3,-0.7,1.8,2470.264,13.35,0.004,0.0
2020-01-24T04:52:03,42.805,6.029,-0.009,0.009,-0.009,108.0,112.0,106.0,13.4,1505.4,327.4,-0.7,1.8,2470.312,13.35,0.012,315.0
2020-01-24T04:55:03,42.805,6.029,-0.001,0.018,-0.002,110.0,114.0,105.0,13.3,1505.4,323.8,-0.7,1.9,2470.292,13.35,0.018,356.8
2020-01-24T04:58:03,42.805,6.029,0.004,0.015,0.008,108.0,111.0,104.0,13.4,1505.4,323.7,-0.7,1.9,2470.324,13.35,0.015,14.9
2020-01-24T05:04:03,42.805,6.029,-0.003,0.009,-0.005,110.0,112.0,105.0,13.3,1505.3,326.6,-0.8,1.8,2470.293,13.33,0.009,341.6
2020-01-24T05:07:03,42.805,6.029,-0.022,0.011,0.002,112.0,113.0,106.0,13.4,1505.3,326.2,-0.7,1.9,2470.314,13.33,0.024,296.6
2020-01-24T05:13:03,42.805,6.029,-0.021,0.027,-0.029,112.0,113.0,104.0,13.3,1505.3,327.2,-0.8,1.8,2470.371,13.32,0.034,322.1
2020-01-24T05:16:03,42.805,6.029,0.009,0.011,-0.03,108.0,113.0,105.0,13.4,1505.3,324.1,-0.7,1.8,2470.348,13.33,0.014,39.3
2020-01-24T05:19:03,42.805,6.029,0.001,-0.004,-0.018,109.0,112.0,105.0,13.4,1505.4,325.4,-0.7,1.8,2470.349,13.34,0.004,166.0
2020-01-24T05:22:03,42.805,6.029,-0.013,0.012,-0.017,108.0,112.0,104.0,13.3,1505.4,323.5,-0.7,1.9,2470.353,13.34,0.017,312.7
2020-01-24T05:25:03,42.805,6.029,-0.011,-0.005,0.004,110.0,114.0,106.0,13.3,1505.4,325.7,-0.7,1.9,2470.355,13.34,0.012,245.6
2020-01-24T05:28:03,42.805,6.029,0.004,0.009,-0.044,111.0,114.0,105.0,13.3,1505.4,324.2,-0.7,1.8,2470.361,13.34,0.009,24.0
2020-01-24T05:31:03,42.805,6.029,0.001,0.0,-0.001,108.0,112.0,106.0,13.4,1505.4,328.2,-0.7,1.8,2470.351,13.34,0.001,90.0
2020-01-24T05:34:03,42.805,6.029,-0.019,-0.004,0.019,108.0,113.0,104.0,13.3,1505.4,325.7,-0.7,1.8,2470.35,13.35,0.019,258.1
2020-01-24T05:37:03,42.805,6.029,-0.011,0.027,0.01,109.0,111.0,105.0,13.3,1505.4,326.3,-0.7,1.8,2470.348,13.35,0.029,337.8
2020-01-24T05:40:03,42.805,6.029,-0.01,0.011,0.0,111.0,113.0,107.0,13.4,1505.4,325.0,-0.7,1.8,2470.342,13.35,0.014,317.7
2020-01-24T05:43:03,42.805,6.029,0.015,0.005,-0.016,108.0,113.0,106.0,13.4,1505.4,323.9,-0.7,1.8,2470.371,13.35,0.015,71.6
2020-01-24T05:46:03,42.805,6.029,0.003,-0.003,-0.036,107.0,112.0,106.0,13.4,1505.4,324.9,-0.7,1.8,2470.364,13.35,0.004,135.0
2020-01-24T05:49:03,42.805,6.029,-0.011,0.007,-0.029,111.0,113.0,106.0,13.4,1505.4,323.9,-0.7,1.9,2470.328,13.35,0.013,302.5
2020-01-24T05:52:03,42.805,6.029,0.008,-0.008,-0.042,109.0,112.0,106.0,13.3,1505.4,327.3,-0.8,1.9,2470.325,13.35,0.011,135.0
2020-01-24T05:55:03,42.805,6.029,-0.004,-0.022,-0.033,110.0,114.0,106.0,13.4,1505.4,326.6,-0.7,1.8,2470.387,13.35,0.022,190.3
2020-01-24T05:58:03,42.805,6.029,-0.017,0.01,-0.024,107.0,113.0,106.0,13.4,1505.4,323.2,-0.7,1.9,2470.339,13.35,0.019,300.5
2020-01-24T06:04:03,42.805,6.029,-0.006,0.003,-0.014,111.0,114.0,106.0,13.4,1505.3,326.9,-0.7,1.8,2470.382,13.33,0.006,296.6
2020-01-24T06:07:03,42.805,6.029,-0.011,0.018,-0.013,111.0,113.0,105.0,13.4,1505.4,327.8,-0.7,1.8,2470.401,13.34,0.021,328.6
2020-01-24T06:10:03,42.805,6.029,-0.018,0.006,-0.033,109.0,113.0,106.0,13.4,1505.4,323.7,-0.7,1.8,2470.395,13.34,0.018,288.4
2020-01-24T06:13:03,42.805,6.029,0.01,0.003,0.004,110.0,112.0,105.0,13.3,1505.4,326.3,-0.7,1.8,2470.382,13.34,0.01,73.3
2020-01-24T06:16:03,42.805,6.029,-0.012,0.022,0.031,110.0,113.0,105.0,13.4,1505.4,327.7,-0.7,1.8,2470.41,13.35,0.025,331.4
2020-01-24T06:19:03,42.805,6.029,-0.007,-0.005,-0.019,113.0,111.0,104.0,13.4,1505.4,326.5,-0.7,1.8,2470.361,13.35,0.008,234.5
2020-01-24T06:22:03,42.805,6.029,-0.022,0.001,-0.054,108.0,111.0,105.0,13.4,1505.4,325.9,-0.7,1.8,2470.337,13.35,0.022,272.6
2020-01-24T06:25:03,42.805,6.029,-0.006,-0.013,-0.016,111.0,114.0,105.0,13.4,1505.4,324.2,-0.7,1.9,2470.372,13.35,0.014,204.8
2020-01-24T06:28:03,42.805,6.029,0.017,0.009,0.0,110.0,110.0,105.0,13.4,1505.4,326.4,-0.7,1.8,2470.319,13.35,0.019,62.1
2020-01-24T06:31:03,42.805,6.029,0.006,0.02,0.005,110.0,111.0,106.0,13.4,1505.4,323.5,-0.7,1.8,2470.397,13.35,0.02,16.7
2020-01-24T06:34:03,42.805,6.029,-0.01,0.017,-0.016,110.0,112.0,104.0,13.3,1505.4,327.3,-0.7,1.8,2470.368,13.35,0.019,329.5
2020-01-24T06:37:03,42.805,6.029,-0.006,-0.012,-0.002,109.0,113.0,106.0,13.3,1505.4,326.3,-0.7,1.9,2470.396,13.35,0.013,206.6
2020-01-24T06:40:03,42.805,6.029,-0.013,0.0,-0.015,111.0,112.0,106.0,13.4,1505.4,323.3,-0.7,1.8,2470.355,13.35,0.013,270.0
2020-01-24T06:43:03,42.805,6.029,0.007,0.017,0.013,109.0,112.0,105.0,13.3,1505.4,326.3,-0.7,1.8,2470.398,13.35,0.018,22.4
2020-01-24T06:46:03,42.805,6.029,-0.008,0.027,-0.011,111.0,111.0,106.0,13.4,1505.4,326.3,-0.7,1.8,2470.359,13.35,0.028,343.5
2020-01-24T06:49:03,42.805,6.029,0.007,0.001,-0.03,110.0,110.0,104.0,13.4,1505.4,323.7,-0.7,1.8,2470.403,13.35,0.007,81.9
2020-01-24T06:52:03,42.805,6.029,0.016,0.007,-0.015,111.0,110.0,104.0,13.3,1505.4,326.5,-0.7,1.8,2470.378,13.35,0.017,66.4
2020-01-24T06:55:03,42.805,6.029,-0.009,0.007,0.005,108.0,110.0,105.0,13.4,1505.4,326.8,-0.7,1.8,2470.373,13.35,0.011,307.9
2020-01-24T06:58:03,42.805,6.029,0.008,0.019,0.001,110.0,109.0,107.0,13.3,1505.4,324.0,-0.7,1.8,2470.383,13.34,0.02,22.8
2020-01-24T07:01:03,42.805,6.029,0.012,0.012,-0.007,111.0,110.0,106.0,13.4,1505.4,324.4,-0.7,1.8,2470.361,13.34,0.016,45.0
2020-01-24T07:04:03,42.805,6.029,0.007,0.008,0.001,108.0,110.0,105.0,13.4,1505.4,325.5,-0.7,1.8,2470.392,13.34,0.01,41.2
2020-01-24T07:07:03,42.805,6.029,-0.001,0.0,0.028,109.0,109.0,106.0,13.4,1505.4,325.2,-0.7,1.8,2470.364,13.34,0.001,270.0
2020-01-24T07:13:03,42.805,6.029,-0.009,-0.011,-0.007,111.0,111.0,106.0,13.4,1505.3,327.1,-0.7,1.8,2470.371,13.32,0.014,219.3
2020-01-24T07:16:03,42.805,6.029,0.013,-0.011,0.0,110.0,111.0,106.0,13.3,1505.3,325.8,-0.8,1.8,2470.405,13.33,0.017,130.2
2020-01-24T07:19:03,42.805,6.029,0.007,0.014,0.032,110.0,110.0,104.0,13.4,1505.3,324.6,-0.7,1.8,2470.417,13.33,0.015,26.6
2020-01-24T07:22:03,42.805,6.029,0.01,0.016,0.023,110.0,112.0,106.0,13.3,1505.4,323.5,-0.7,1.8,2470.395,13.34,0.018,32.0
2020-01-24T07:25:03,42.805,6.029,0.02,0.008,0.027,111.0,110.0,105.0,13.4,1505.4,324.6,-0.7,1.8,2470.395,13.34,0.021,68.2
2020-01-24T07:28:03,42.805,6.029,-0.005,0.014,-0.009,110.0,112.0,106.0,13.4,1505.4,323.2,-0.7,1.8,2470.381,13.34,0.014,340.4
2020-01-24T07:31:03,42.805,6.029,-0.01,-0.008,-0.035,110.0,114.0,108.0,13.4,1505.4,325.7,-0.7,1.8,2470.396,13.34,0.012,231.3
2020-01-24T07:34:03,42.805,6.029,-0.018,0.007,0.009,112.0,112.0,105.0,13.3,1505.4,325.3,-0.7,1.8,2470.385,13.34,0.019,291.2
2020-01-24T07:37:03,42.805,6.029,0.0,-0.009,-0.018,110.0,112.0,106.0,13.3,1505.4,328.6,-0.7,1.9,2470.386,13.34,0.009,180.0
2020-01-24T07:40:03,42.805,6.029,-0.006,-0.004,-0.005,110.0,112.0,105.0,13.4,1505.4,325.6,-0.7,1.8,2470.425,13.34,0.007,236.3
2020-01-24T07:43:03,42.805,6.029,-0.022,0.024,-0.02,110.0,111.0,106.0,13.4,1505.4,327.6,-0.7,1.9,2470.373,13.34,0.032,317.5
2020-01-24T07:46:03,42.805,6.029,-0.028,0.0,-0.046,110.0,111.0,106.0,13.4,1505.4,323.2,-0.7,1.8,2470.393,13.34,0.028,270.0
2020-01-24T07:49:03,42.805,6.029,0.0,0.014,-0.001,110.0,111.0,105.0,13.4,1505.4,325.8,-0.7,1.8,2470.384,13.34,0.014,0.0
2020-01-24T07:52:03,42.805,6.029,-0.008,0.025,0.019,110.0,112.0,105.0,13.4,1505.4,328.6,-0.7,1.9,2470.346,13.34,0.026,342.3
2020-01-24T07:55:03,42.805,6.029,0.012,-0.006,-0.006,110.0,112.0,106.0,13.4,1505.4,324.9,-0.7,1.8,2470.414,13.34,0.013,116.6
2020-01-24T07:58:03,42.805,6.029,-0.007,0.0,-0.026,111.0,112.0,105.0,13.4,1505.4,326.4,-0.7,1.8,2470.382,13.34,0.007,270.0
2020-01-24T08:04:03,42.805,6.029,0.008,0.021,-0.023,111.0,111.0,106.0,13.4,1505.3,322.6,-0.8,1.8,2470.422,13.32,0.022,20.9
2020-01-24T08:07:03,42.805,6.029,0.004,0.007,0.043,110.0,112.0,106.0,13.4,1505.3,325.6,-0.7,1.8,2470.423,13.33,0.008,29.7
2020-01-24T08:10:03,42.805,6.029,-0.016,0.004,0.004,110.0,111.0,104.0,13.3,1505.3,327.1,-0.7,1.9,2470.446,13.33,0.016,284.0
2020-01-24T08:13:03,42.805,6.029,-0.007,-0.005,-0.028,109.0,111.0,106.0,13.4,1505.4,324.8,-0.7,1.9,2470.395,13.34,0.008,234.5
2020-01-24T08:16:03,42.805,6.029,-0.008,0.01,0.001,110.0,111.0,106.0,13.4,1505.4,323.2,-0.7,1.9,2470.408,13.34,0.012,321.3
2020-01-24T08:19:03,42.805,6.029,0.009,0.0,-0.013,111.0,111.0,105.0,13.3,1505.4,324.9,-0.7,1.8,2470.448,13.34,0.009,90.0
2020-01-24T08:22:03,42.805,6.029,-0.005,0.01,-0.003,110.0,110.0,106.0,13.4,1505.4,324.7,-0.7,1.9,2470.369,13.34,0.011,333.4
2020-01-24T08:25:03,42.805,6.029,-0.013,-0.001,0.022,109.0,112.0,106.0,13.4,1505.4,327.0,-0.7,1.8,2470.368,13.34,0.013,265.6
2020-01-24T08:28:03,42.805,6.029,-0.016,-0.008,0.003,110.0,111.0,106.0,13.4,1505.4,324.9,-0.7,1.8,2470.404,13.34,0.017,243.4
2020-01-24T08:31:03,42.805,6.029,-0.013,0.01,-0.005,109.0,111.0,106.0,13.4,1505.4,324.8,-0.7,1.9,2470.418,13.34,0.016,307.6
2020-01-24T08:34:03,42.805,6.029,-0.026,0.015,-0.016,110.0,112.0,105.0,13.4,1505.4,325.2,-0.7,1.8,2470.399,13.34,0.03,300.0
2020-01-24T08:37:03,42.805,6.029,-0.007,0.025,0.031,111.0,111.0,106.0,13.4,1505.4,327.3,-0.7,1.8,2470.351,13.34,0.025,344.4
2020-01-24T08:40:03,42.805,6.029,-0.012,0.014,-0.003,110.0,112.0,105.0,13.4,1505.4,326.3,-0.7,1.8,2470.356,13.34,0.018,319.4
2020-01-24T08:43:03,42.805,6.029,-0.015,0.008,-0.003,111.0,111.0,105.0,13.3,1505.4,328.3,-0.7,1.8,2470.382,13.34,0.017,298.1
2020-01-24T08:46:03,42.805,6.029,-0.021,-0.008,0.006,111.0,113.0,105.0,13.3,1505.4,327.1,-0.7,1.8,2470.376,13.34,0.022,249.1
2020-01-24T08:49:03,42.805,6.029,0.003,-0.003,-0.019,110.0,111.0,105.0,13.4,1505.4,325.4,-0.7,1.8,2470.406,13.34,0.004,135.0
2020-01-24T08:52:03,42.805,6.029,-0.013,0.007,0.016,110.0,112.0,106.0,13.4,1505.4,324.2,-0.7,1.8,2470.377,13.34,0.014,298.3
2020-01-24T08:55:03,42.805,6.029,-0.019,-0.005,-0.01,110.0,111.0,106.0,13.4,1505.4,325.9,-0.7,1.8,2470.341,13.34,0.019,255.3
2020-01-24T08:58:03,42.805,6.029,-0.025,0.004,-0.004,111.0,110.0,105.0,13.4,1505.4,325.1,-0.7,1.8,2470.378,13.34,0.025,279.1
2020-01-24T09:04:03,42.805,6.029,-0.03,0.013,-0.009,110.0,112.0,106.0,13.3,1505.3,326.6,-0.7,1.8,2470.349,13.32,0.032,293.4
2020-01-24T09:07:03,42.805,6.029,-0.007,-0.011,0.016,111.0,114.0,105.0,13.4,1505.3,327.4,-0.7,1.8,2470.406,13.33,0.013,212.5
2020-01-24T09:10:03,42.805,6.029,-0.02,-0.002,0.006,110.0,113.0,105.0,13.4,1505.3,325.6,-0.7,1.8,2470.346,13.33,0.02,264.3
2020-01-24T09:13:03,42.805,6.029,-0.025,-0.004,-0.029,110.0,113.0,106.0,13.4,1505.3,328.0,-0.7,1.8,2470.41,13.33,0.025,260.9
2020-01-24T09:16:03,42.805,6.029,0.0,0.009,0.006,110.0,112.0,107.0,13.4,1505.4,324.3,-0.7,1.8,2470.391,13.34,0.009,0.0
2020-01-24T09:19:03,42.805,6.029,-0.012,0.008,-0.042,110.0,112.0,106.0,13.3,1505.4,325.7,-0.7,1.9,2470.365,13.34,0.014,303.7
2020-01-24T09:22:03,42.805,6.029,-0.001,0.02,0.0,110.0,112.0,105.0,13.4,1505.4,325.3,-0.7,1.8,2470.361,13.34,0.02,357.1
2020-01-24T09:25:03,42.805,6.029,-0.01,0.004,-0.018,111.0,112.0,105.0,13.4,1505.4,324.0,-0.7,1.9,2470.391,13.34,0.01,291.8
2020-01-24T09:28:03,42.805,6.029,-0.007,0.004,0.034,110.0,110.0,106.0,13.4,1505.4,323.5,-0.7,1.8,2470.391,13.34,0.008,299.7
2020-01-24T09:31:03,42.805,6.029,-0.027,-0.004,-0.03,112.0,112.0,106.0,13.4,1505.4,326.8,-0.7,1.8,2470.384,13.34,0.027,261.6
2020-01-24T09:34:03,42.805,6.029,-0.022,0.013,-0.003,109.0,113.0,104.0,13.4,1505.4,325.2,-0.7,1.8,2470.417,13.34,0.025,300.6
2020-01-24T09:37:03,42.805,6.029,0.016,-0.008,-0.004,109.0,112.0,106.0,13.3,1505.4,325.0,-0.7,1.9,2470.338,13.34,0.017,116.6
2020-01-24T09:40:03,42.805,6.029,-0.007,0.0,-0.007,110.0,112.0,106.0,13.4,1505.4,326.2,-0.7,1.8,2470.362,13.34,0.007,270.0
2020-01-24T09:43:03,42.805,6.029,-0.01,0.001,-0.013,110.0,110.0,106.0,13.4,1505.4,327.2,-0.7,1.8,2470.333,13.34,0.01,275.7
2020-01-24T09:46:03,42.805,6.029,-0.013,0.007,0.008,109.0,111.0,106.0,13.3,1505.4,326.0,-0.7,1.8,2470.373,13.34,0.014,298.3
2020-01-24T09:49:03,42.805,6.029,-0.046,0.024,-0.048,110.0,113.0,105.0,13.4,1505.4,325.5,-0.7,1.8,2470.335,13.34,0.051,297.6
2020-01-24T09:52:03,42.805,6.029,-0.034,0.008,-0.034,111.0,113.0,105.0,13.4,1505.4,328.7,-0.7,1.8,2470.386,13.34,0.034,283.2
2020-01-24T09:55:03,42.805,6.029,-0.007,0.008,-0.004,110.0,112.0,106.0,13.3,1505.4,323.3,-0.7,1.8,2470.309,13.34,0.01,318.8
2020-01-24T09:58:03,42.805,6.029,-0.02,0.008,-0.022,111.0,111.0,106.0,13.4,1505.4,326.3,-0.7,1.8,2470.364,13.34,0.021,291.8